OK1VCF-5 Weather Reports


time (UTC)temp
C
wind
direction
speed
KPH
gust
KPH
rain 1hr
cm
rain 24hr
cm
rain mn
cm
humidity
%
barometer
mb
20260505052929 15 0 0.0 0.0 0.00 0.00 0.00 86 1013.2
20260505041427 12 0 0.0 0.0 0.00 0.00 0.00 93 1013.4
20260505035930 11 0 0.0 0.0 0.00 0.00 0.00
20260505035926 11 0 0.0 0.0 0.00 0.00 0.00 94 1013.4
20260505034425 11 0 0.0 0.0 0.00 0.00 0.00 94 1013.6
20260505032924 11 0 0.0 0.0 0.00 0.00 0.00 94 1013.7
20260505031445 11 0 0.0 0.0 0.00 0.00 0.00 94 1013.6
20260505031424 11 0 0.0 0.0 0.00 0.00 0.00 94 1013.6
20260505025923 12 0 0.0 0.0 0.00 0.00 0.00 94 1013.6
20260505024422 12 0 0.0 0.0 0.00 0.00 0.00 93 1013.7
20260505022921 12 0 0.0 0.0 0.00 0.00 0.00 93 1013.7
20260505021421 12 0 0.0 0.0 0.00 0.00 0.00 93 1013.9
20260505014451 -17 0 0.0 0.0 0.00 0.00 0.00 92 1014.0
20260505014419 12 0 0.0 0.0 0.00 0.00 0.00 92 1014.0
20260505012918 12 0 0.0 0.0 0.00 0.00 0.00 92 1013.8
20260505011451 12 0 0.0 0.0 0.00 0.00 0.00 92 1014.0
20260505011418 12 0 0.0 0.0 0.00 0.00 0.00 92 1014.0
20260505005917 12 0 0.0 0.0 0.00 0.00 0.00 92 1014.0
20260505002918 13 0 0.0 0.0 0.00 0.00 0.00 91 1014.4
20260505002915 13 0 0.0 0.0 0.00 0.00 0.00 91 1014.4
20260505001415 13 0 0.0 0.0 0.00 0.00 0.00 88 1014.8
20260504235914 13 0 0.0 0.0 0.00 0.00 0.00 90 1014.7
20260504234415 13 0 0.0 0.0 0.00 0.00 0.00 91 1014.9
20260504232916 13 0 0.0 0.0 0.00 0.00 0.00 90 1015.0
20260504231412 13 0 0.0 0.0 0.00 0.00 0.00 90 1015.2
20260504225910 13 0 0.0 0.0 0.00 0.00 0.00 88 1015.1
20260504224409 14 0 0.0 0.0 0.00 0.00 0.00 88 1015.4
20260504223125 14 0 0.0 0.0 0.00 0.00 0.00 89 1015.5
20260504222909 14 0 0.0 0.0 0.00 0.00 0.00 89 1015.5
20260504221414 14 0 0.0 0.0 0.00 0.00 0.00 89 1016.2
20260504221408 14 0 0.0 0.0 0.00 0.00 0.00 89 1016.2
20260504215906 14 0 0.0 0.0 0.00 0.00 0.00 90 1016.2
20260504214406 15 0 0.0 0.0 0.00 0.00 0.00 84 1016.6
20260504213031 16 0 0.0 0.0 0.00 0.00 0.00 72 1016.3
20260504212906 16 0 0.0 0.0 0.00 0.00 0.00 72 1016.3
20260504211405 17 0 0.0 0.0 0.00 0.00 0.00 63 1016.1
20260504205907 16 0 0.0 0.0 0.00 0.00 0.00 60 1015.6
20260504204402 16 0 0.0 0.0 0.00 0.00 0.00 63 1015.6
20260504202903 16 0 0.0 0.0 0.00 0.00 0.00 63 1015.4
20260504201402 17 0 0.0 0.0 0.00 0.00 0.00 62 1015.4
20260504200244 17 0 0.0 0.0 0.00 0.00 0.00 60 1015.6
20260504195901 17 0 0.0 0.0 0.00 0.00 0.00 60 1015.6
20260504194400 17 0 0.0 0.0 0.00 0.00 0.00 60 1015.6
20260504192900 17 0 0.0 0.0 0.00 0.00 0.00 60 1015.6
20260504192859 17 0 0.0 0.0 0.00 0.00 0.00 60 1015.6
20260504191358 18 0 0.0 0.0 0.00 0.00 0.00 53 1015.5
20260504185859 18 0 0.0 0.0 0.00 0.00 0.00 1015.2
20260504184357 18 0 0.0 0.0 0.00 0.00 0.00 54 1015.3
20260504182856 19 0 0.0 0.0 0.00 0.00 0.00 53 1015.0
20260504181355 20 0 0.0 0.0 0.00 0.00 0.00 52 1015.0
20260504175855 20 0 0.0 0.0 0.00 0.00 0.00 50 1014.9
20260504174354 21 0 0.0 0.0 0.00 0.00 0.00 49 1015.0
20260504172853 21 0 0.0 0.0 0.00 0.00 0.00 47 1014.9
20260504171352 22 0 0.0 0.0 0.00 0.00 0.00 44 1015.0